Home   Weather   Pensacola   Past weeks

Flag for USA Past Weather in Pensacola, Florida, USA — Yesterday and Last 2 Weeks

Now
64 °F

Light rain. Mostly cloudy.


Feels Like: 64 °F
Forecast: 60 / 69 °F
Wind: 6 mph from East

Location: Pensacola Regional Airport

Current Time: Feb 21, 2017 at 1:03:22 pm

Latest Report: Feb 21, 2017 at 12:19 pm


Visibility: 10 mi

Pressure: 29.94 "Hg

Humidity: 94%

Dew Point: 62 °F

Location of PensacolaLocation

Past Weather in Pensacola — Graph

°F

Pensacola Temperature Yesterday

Maximum temperature yesterday: 75 °F (at 12:53 pm)
Minimum temperature yesterday: 57 °F (at 3:53 am)
Average temperature yesterday: 66 °F

High & Low Weather Summary for the Past Weeks

 TemperatureHumidityPressure
High80 °F (Feb 12, 1:53 pm)97% (Feb 7, 1:16 am)30.42 "Hg (Feb 7, 1:16 am)
Low41 °F (Feb 16, 5:53 am)18% (Feb 13, 3:53 pm)29.70 "Hg (Feb 15, 2:53 am)
Average64 °F76%30.04 "Hg
* Reported Feb 6 11:53 am — Feb 21 11:53 am, Pensacola, Weather by CustomWeather, © 2017

Note: Actual official high and low records may vary slightly from our data, if they occured in-between our weather recording intervals... More about our weather records

Advertising

Pensacola Weather History for the Previous 24 Hours

Scroll right to see more
 ConditionsComfort  
Time TempWeatherWind HumidityBarometerVisibility
11:53 am
Tue, Feb 21
64 °FLight rain. Fog.6 mph90%29.94 "Hg6 mi
11:02 am63 °FHeavy rain. Fog.3 mph93%29.99 "Hg2 mi
10:55 am63 °FHeavy rain. Fog.3 mph93%30.00 "Hg2 mi
10:07 am64 °FRain. Fog.3 mph90%30.01 "Hg1 mi
9:53 am64 °FHeavy rain. Fog.5 mph90%30.01 "Hg2 mi
8:53 am64 °FRain. Mostly cloudy.3 mph90%30.00 "Hg7 mi
7:53 am64 °FPartly sunny.7 mph90%29.99 "Hg10 mi
6:53 am64 °FPartly sunny.7 mph90%29.99 "Hg10 mi
6:01 am64 °FRain. Fog.14 mph90%29.99 "Hg4 mi
5:43 am64 °FHeavy rain. Fog.14 mph90%29.99 "Hg1 mi
5:32 am66 °FHeavy rain. Fog.15 mph87%29.99 "Hg2 mi
4:53 am68 °FLight rain. Low clouds.6 mph93%29.96 "Hg7 mi
4:37 am68 °FRain. Fog.6 mph90%29.97 "Hg3 mi
4:12 am68 °FHeavy rain. Fog.5 mph93%29.97 "Hg1 mi
4:08 am68 °FHeavy rain. Fog.6 mph90%29.98 "Hg2 mi
3:53 am68 °FMostly cloudy.8 mph90%29.96 "Hg10 mi
2:53 am68 °FOvercast.5 mph90%29.98 "Hg10 mi
1:53 am68 °FPassing clouds.10 mph90%29.99 "Hg10 mi
12:53 am67 °FPassing clouds.9 mph90%30.00 "Hg10 mi
11:53 pm
Mon, Feb 20
67 °FPassing clouds.9 mph90%30.02 "Hg10 mi
10:53 pm67 °FClear.14 mph90%30.02 "Hg10 mi
9:53 pm67 °FClear.10 mph90%30.04 "Hg10 mi
8:53 pm66 °FClear.8 mph93%30.06 "Hg10 mi
7:53 pm66 °FClear.6 mph90%30.08 "Hg10 mi
6:53 pm66 °FClear.8 mph90%30.07 "Hg10 mi
5:53 pm67 °FClear.9 mph87%30.07 "Hg10 mi
4:53 pm70 °FClear.12 mph81%30.08 "Hg10 mi
3:53 pm71 °FSunny.10 mph76%30.08 "Hg10 mi
2:53 pm75 °FSunny.7 mph64%30.09 "Hg10 mi
1:53 pm75 °FSunny.9 mph64%30.09 "Hg10 mi
Weather by CustomWeather, © 2017

See weather overviewHow to use our weather pages